Showing default

OPS 6073 (DMSP 4A F2), 2669

Orbit data source: Space-Track

OPS 6073 (DMSP 4A F2), 2669 is a payload satellite owned by USAF SSD (US) in SSO that was launched on Wed, 08 Feb 1967 UTC via a THOR BURNER 2 launch vehicle from the Air Force Western Test Range (AFWTR). Payloads include a variety of satellites, spacecraft, and rockets equipped with specific instruments for various scientific and technological missions. These include communications satellites like Starlink; space stations such as the ISS; scientific satellites like the Hubble; Earth observation satellites from companies like Planet Labs, Umbra, and HawkEye 360; GPS; miniature CubeSats for education and research; and military/defense satellites.

Loading next visibility...
OPS 6073 (DMSP 4A F2) details
Identifier
2669, 1967-010A
Orbit
SSO
Last TLE update20 hours ago
Origin
Flag of USUSAF SSD (US)
ManufacturerRCA/East Windsor
MissionNon-operational Defense Weather
Bus & MotorDMSP BLOCK 4A, Unknown motor
Mass79 kg wet, 79 kg dry
Launch date (UTC)
1967-02-08 (58 years ago)
Launch vehicle
THOR BURNER 2
Launch site
Air Force Western Test Range (AFWTR)
Object type
Payload
Rocket body
Debris
Shape & HBROct Cyl, 0.8 m
Radar Cross Section0.655 m², Medium (>0.1 m² and < 1m²)

Expand to show TLE details & history

TLE from 20 hours ago
0 OPS 6073 (DMSP 4A F2)
1 02669U 67010A   24355.82860719  .00000345  00000-0  15662-3 0  9992
2 02669  99.0596 325.5802 0049497 149.5501 210.8569 14.27881467  6786
Epoch: 2024-12-20T19:53Z
Definitive object data (Epoch: 2024-12-20T19:53:11.661Z)
Latitude-0.00005°
Longitude-62.60689°
Altitude832.282 km
Speed7.421 km/s
True Right ascension21h 42m 19s
True Declination0° 00' 00"
Sunlit
Object was in daylight at TLE epoch
Visualization TLE readout
Latitude-54.56452°
Longitude-48.86744°
Altitude852.75 km
Speed7.408 km/s
Apparent Right ascension00h 54m 50s
Apparent Declination-52° 02' 50"
Sunlit
Object is in daylight
Visualization observer readout
Local Sidereal Time14:50:43
Azimuth131.064° SE
Elevation-66.729°
Doppler factor1
Orbital elements
Apogee altitude831.496 km
Perigee altitude760.476 km
Semi-major axis7,174.123 km
Eccentricity0.0049497
Inclination99.0596°
RAAN325.5802°
Arg. of periapsis149.5501°
True anomaly210.56753°
Mean anomaly210.8569°
Eccentric anomaly210.71206°
Mean motion3.57182 °/min
BSTAR0.00015662
Orbital period100.79 mins
Loading maneuver chart data...
Loading historical data...
Loading historical data...
Loading historical data...
Loading historical data...
Loading historical data...
Loading historical data...
Loading historical data...
Other satellites on launch #10 in the year 1967 (1967-02-08 UTC)

OPS 6073 (DMSP 4A F2) Visibility forecast

Observer location: undefined°, undefined

Span
Click to sort rows by Start time (UTC) header in descending order
Start Az.
Max El. time (UTC)
Max El. Az.
Max El.
End time (UTC)
End Az.
8 mins2024-12-21 21:15:22.045Z120.471° SE2024-12-21 21:19:22.045Z61.294° ENE26.158°2024-12-21 21:23:22.045Z9.076° NNE
7 mins2024-12-21 22:55:22.045Z208.32° SW2024-12-21 22:58:22.045Z256.932° W29.035°2024-12-21 23:02:22.045Z320.817° NNW
8 mins2024-12-22 11:09:22.045Z14.873° NNE2024-12-22 11:13:22.045Z184.879° SSW44.407°2024-12-22 11:17:22.045Z194.474° SSW
|